Regional Weather Roundup
Issued by NWS

Home | Current Version | Previous Version | Graphics & Text | Print | Product List | Glossary On
Versions: 1 2 3 4 5 6 7 8 9 10 11 12 13 14 15 16 17 18 19 20 21 22 23 24 25 26 27 28 29 30 31 32 33 34 35 36 37 38 39 40 41 42 43 44 45 46 47 48 49 50
000
ASUS44 KMEG 021210
RWRTN
TENNESSEE HOURLY STATE WEATHER ROUNDUP
NATIONAL WEATHER SERVICE MEMPHIS TN
700 AM CDT SUN AUG 02 2015

TNZ002-004-019-021-049-052-054-088>092-021300-
WEST TENNESSEE

CITY           SKY/WX    TMP DP  RH WIND       PRES   REMARKS
MEMPHIS INTL   PTCLDY    78  68  71 E3        29.96S
NWS MEMPHIS      N/A     70 N/A N/A MISG        N/A
JACKSON        CLEAR     71  67  87 CALM      29.98R
DYERSBURG        N/A    N/A N/A N/A MISG        N/A
PARIS          SUNNY     66  64  94 CALM      29.99S
LEXINGTON      SUNNY     66  66 100 CALM      29.97S
$$

TNZ008-025-027-028-033-062-065-066-021300-
NORTH MIDDLE TENNESSEE

CITY           SKY/WX    TMP DP  RH WIND       PRES   REMARKS
NASHVILLE      MOSUNNY   69  65  86 CALM      30.00R
CLARKSVILLE    SUNNY     64  63  96 CALM      29.99S FOG
SMYRNA         SUNNY     62  61  97 CALM      30.00S
CROSSVILLE     SUNNY     62  58  86 CALM      30.05R
$$

TNZ061-075-076-078-094-096-097-021300-
SOUTH MIDDLE TENNESSEE

CITY           SKY/WX    TMP DP  RH WIND       PRES   REMARKS
FAYETTEVILLE   SUNNY     68  63  83 NE7       29.99S
TULLAHOMA      SUNNY     66  61  82 CALM      30.01S
WINCHESTER     SUNNY     63  63 100 CALM      30.00S
MCMINNVILLE    SUNNY     63  63 100 NE5       30.01S
COLUMBIA       CLOUDY   N/A N/A N/A CALM      29.98S VSB 0
SHELBYVILLE    SUNNY     64  64 100 CALM      30.00S
$$

TNZ017-018-042-046-047-021300-
NORTHEAST TENNESSEE

CITY           SKY/WX    TMP DP  RH WIND       PRES   REMARKS
TRI CITIES     PTSUNNY   64  61  90 CALM      30.05R
ELIZABETHTON   SUNNY     61  57  88 NE7       30.05S
$$

TNZ012-013-036-069-073-074-021300-
CENTRAL EAST TENNESSEE

CITY           SKY/WX    TMP DP  RH WIND       PRES   REMARKS
KNOXVILLE      MOSUNNY   67  64  90 CALM      30.00R
OAK RIDGE      SUNNY     66  62  87 E3        30.02R
GATLINBURG     SUNNY     64  61  88 CALM      30.01R
MORRISTOWN     SUNNY     66  63  88 E3        30.03S
$$

TNZ083-085-099-021300-
SOUTHEAST TENNESSEE

CITY           SKY/WX    TMP DP  RH WIND       PRES   REMARKS
CHATTANOOGA    MOSUNNY   71  65  81 CALM      29.98S
$$

SKY/WX REPORTED AS FAIR MEANS FEW OR NO CLOUDS BELOW
12 THOUSAND FEET.




USA.gov is the U.S. government's official web portal to all federal, state and local government web resources and services.